GW6787 Weather Reports


time (UTC)temp
C
wind
direction
speed
KPH
gust
KPH
rain 1hr
cm
rain 24hr
cm
rain mn
cm
humidity
%
barometer
mb
20260510175504 10 82 4.8 17.7 0.00 0.00 0.00 59 1015.5
20260510175003 10 36 6.4 17.7 0.00 0.00 0.00 60 1015.5
20260510174513 10 69 3.2 14.5 0.00 0.00 0.00 60 1015.6
20260510174007 10 61 4.8 12.9 0.00 0.00 0.00 61 1015.6
20260510173506 10 5 3.2 19.3 0.00 0.00 0.00 62 1015.6
20260510173009 10 336 4.8 19.3 0.00 0.00 0.00 63 1015.6
20260510172503 10 61 4.8 16.1 0.00 0.00 0.00 63 1015.7
20260510172011 10 321 4.8 16.1 0.00 0.00 0.00 64 1015.7
20260510171505 10 24 4.8 17.7 0.00 0.00 0.00 64 1015.7
20260510171004 10 61 3.2 17.7 0.00 0.00 0.00 63 1015.7
20260510170504 10 5 3.2 22.5 0.00 0.00 0.00 64 1015.8
20260510170014 10 49 8.0 19.3 0.00 0.00 0.00 63 1015.9
20260510165503 10 58 4.8 19.3 0.00 0.00 0.00 63 1015.9
20260510165005 10 43 6.4 19.3 0.00 0.00 0.00 65 1015.9
20260510164529 10 76 3.2 19.3 0.00 0.00 0.00 65 1015.9
20260510164006 10 47 6.4 17.7 0.00 0.00 0.00 64 1015.9
20260510163504 10 23 6.4 17.7 0.00 0.00 0.00 64 1016.0
20260510163020 10 25 4.8 17.7 0.00 0.00 0.00 64 1016.1
20260510162506 10 80 6.4 16.1 0.00 0.00 0.00 62 1016.2
20260510162006 11 266 4.8 19.3 0.00 0.00 0.00 61 1016.2
20260510161515 11 46 6.4 19.3 0.00 0.00 0.00 61 1016.3
20260510161007 11 346 6.4 20.9 0.00 0.00 0.00 62 1016.4
20260510160509 11 74 4.8 20.9 0.00 0.00 0.00 63 1016.4
20260510160011 11 15 4.8 17.7 0.00 0.00 0.00 65 1016.5
20260510155508 11 38 6.4 17.7 0.00 0.00 0.00 65 1016.6
20260510155004 11 28 8.0 20.9 0.00 0.00 0.00 64 1016.6
20260510154508 11 54 9.7 20.9 0.00 0.00 0.00 64 1016.6
20260510154005 11 116 8.0 19.3 0.00 0.00 0.00 64 1016.6
20260510153507 11 46 6.4 17.7 0.00 0.00 0.00 65 1016.6
20260510153026 11 325 6.4 17.7 0.00 0.00 0.00 65 1016.7
20260510152506 11 296 8.0 24.1 0.00 0.00 0.00 65 1016.7
20260510152010 11 113 6.4 24.1 0.00 0.00 0.00 65 1016.7
20260510151522 11 77 6.4 20.9 0.00 0.00 0.00 64 1017.0
20260510151006 11 47 4.8 20.9 0.00 0.00 0.00 65 1017.0
20260510150504 11 53 4.8 19.3 0.00 0.00 0.00 67 1017.1
20260510150023 11 65 8.0 19.3 0.00 0.00 0.00 66 1017.2
20260510145514 11 61 6.4 19.3 0.00 0.00 0.00 66 1017.3
20260510145005 11 76 6.4 19.3 0.00 0.00 0.00 67 1017.3
20260510144510 11 86 4.8 19.3 0.00 0.00 0.00 66 1017.4
20260510144003 11 323 3.2 19.3 0.00 0.00 0.00 66 1017.5
20260510143507 11 80 6.4 19.3 0.00 0.00 0.00 66 1017.5
20260510143016 11 47 6.4 17.7 0.00 0.00 0.00 65 1017.6
20260510142508 11 48 6.4 20.9 0.00 0.00 0.00 65 1017.5
20260510142010 11 334 6.4 20.9 0.00 0.00 0.00 65 1017.6
20260510141513 11 32 6.4 20.9 0.00 0.00 0.00 65 1017.7
20260510141007 11 11 8.0 19.3 0.00 0.00 0.00 65 1017.7
20260510140502 11 97 8.0 19.3 0.00 0.00 0.00 65 1017.8
20260510140005 12 37 6.4 22.5 0.00 0.00 0.00 65 1017.9
20260510135502 12 42 8.0 22.5 0.00 0.00 0.00 65 1017.9
20260510135002 12 42 6.4 19.3 0.00 0.00 0.00 65 1017.9
20260510134506 12 289 4.8 24.1 0.00 0.00 0.00 67 1017.8
20260510134006 11 13 9.7 24.1 0.00 0.00 0.00 64 1017.8
20260510133504 12 71 8.0 20.9 0.00 0.00 0.00 63 1018.0
20260510133002 12 76 6.4 19.3 0.00 0.00 0.00 65 1017.9
20260510132502 12 343 8.0 22.5 0.00 0.00 0.00 67 1017.9
20260510132006 11 98 6.4 22.5 0.00 0.00 0.00 66 1018.1
20260510131502 11 351 9.7 20.9 0.00 0.00 0.00 66 1018.1
20260510131002 11 10 6.4 22.5 0.00 0.00 0.00 67 1018.0
20260510130502 11 23 8.0 22.5 0.00 0.00 0.00 67 1018.1
20260510130007 11 17 9.7 27.4 0.00 0.00 0.00 66 1018.1
20260510125503 11 123 8.0 27.4 0.00 0.00 0.00 65 1018.1
20260510125003 12 84 8.0 24.1 0.00 0.00 0.00 65 1018.2
20260510124511 12 340 9.7 24.1 0.00 0.00 0.00 65 1018.3
20260510124002 12 360 9.7 24.1 0.00 0.00 0.00 66 1018.2
20260510123503 11 5 8.0 24.1 0.00 0.00 0.00 68 1018.2
20260510123014 11 80 8.0 22.5 0.00 0.00 0.00 67 1018.2
20260510122502 11 9 8.0 22.5 0.00 0.00 0.00 67 1018.3
20260510122003 11 62 6.4 20.9 0.00 0.00 0.00 67 1018.3
20260510121509 11 297 6.4 19.3 0.00 0.00 0.00 69 1018.3
20260510121006 11 41 4.8 19.3 0.00 0.00 0.00 71 1018.4
20260510120503 11 24 8.0 19.3 0.00 0.00 0.00 71 1018.4
20260510120004 11 341 3.2 19.3 0.00 0.00 0.00 71 1018.6
20260510115502 11 13 4.8 17.7 0.00 0.00 0.00 71 1018.5
20260510115002 11 32 6.4 20.9 0.00 0.00 0.00 71 1018.5
20260510114505 11 64 3.2 25.7 0.00 0.00 0.00 72 1018.6
20260510114002 11 13 8.0 25.7 0.00 0.00 0.00 72 1018.6
20260510113504 11 48 6.4 17.7 0.00 0.00 0.00 71 1018.7
20260510113005 11 61 3.2 17.7 0.00 0.00 0.00 73 1018.7
20260510112503 11 145 4.8 25.7 0.00 0.00 0.00 72 1018.7
20260510112004 11 329 6.4 25.7 0.00 0.00 0.00 72 1018.8
20260510111515 11 98 4.8 19.3 0.00 0.00 0.00 72 1018.8
20260510111001 11 11 4.8 25.7 0.00 0.00 0.00 71 1018.9
20260510110507 11 73 4.8 25.7 0.00 0.00 0.00 71 1019.0
20260510110014 11 29 6.4 14.5 0.00 0.00 0.00 71 1019.0
20260510105503 11 265 4.8 14.5 0.00 0.00 0.00 71 1019.1
20260510105003 11 313 6.4 14.5 0.00 0.00 0.00 71 1019.1
20260510104502 11 23 4.8 17.7 0.00 0.00 0.00 72 1019.1
20260510104002 11 35 6.4 20.9 0.00 0.00 0.00 71 1019.0
20260510103502 11 352 8.0 20.9 0.00 0.00 0.00 70 1019.0
20260510103006 11 37 3.2 16.1 0.00 0.00 0.00 72 1019.0
20260510102503 11 56 4.8 16.1 0.00 0.00 0.00 72 1018.9
20260510102003 11 90 4.8 20.9 0.00 0.00 0.00 72 1019.1
20260510101508 11 5 8.0 20.9 0.00 0.00 0.00 71 1019.1
20260510101008 11 62 8.0 19.3 0.00 0.00 0.00 71 1019.1
20260510100507 11 352 8.0 19.3 0.00 0.00 0.00 70 1019.1
20260510100005 11 65 9.7 20.9 0.00 0.00 0.00 68 1019.3
20260510095505 11 313 6.4 20.9 0.00 0.00 0.00 70 1019.0
20260510095006 11 45 8.0 20.9 0.00 0.00 0.00 68 1019.2
20260510094519 12 342 6.4 22.5 0.00 0.00 0.00 68 1019.1
20260510094003 12 22 9.7 22.5 0.00 0.00 0.00 68 1019.1
20260510093507 12 79 8.0 22.5 0.00 0.00 0.00 67 1019.1
20260510093004 12 305 6.4 17.7 0.00 0.00 0.00 67 1019.2
20260510092503 12 106 4.8 22.5 0.00 0.00 0.00 68 1019.1
20260510092002 12 350 6.4 22.5 0.00 0.00 0.00 68 1019.1
20260510091520 12 87 3.2 27.4 0.00 0.00 0.00 70 1019.2
20260510091003 12 342 11.3 27.4 0.00 0.00 0.00 69 1019.2
20260510090503 12 34 3.2 22.5 0.00 0.00 0.00 70 1019.2
20260510090014 12 352 3.2 24.1 0.00 0.00 0.00 70 1019.2
20260510085506 12 66 9.7 24.1 0.00 0.00 0.00 68 1019.2
20260510085003 12 340 6.4 24.1 0.00 0.00 0.00 70 1019.2
20260510084507 12 40 8.0 24.1 0.00 0.00 0.00 70 1019.1
20260510084009 12 322 8.0 20.9 0.00 0.00 0.00 70 1019.2
20260510083510 12 149 9.7 24.1 0.00 0.00 0.00 69 1019.2
20260510083006 13 32 9.7 20.9 0.00 0.00 0.00 69 1019.2
20260510082503 12 56 6.4 19.3 0.00 0.00 0.00 70 1019.3
20260510082003 12 59 6.4 20.9 0.00 0.00 0.00 71 1019.2
20260510081522 12 43 4.8 25.7 0.00 0.00 0.00 72 1019.2
20260510081003 11 109 8.0 25.7 0.00 0.00 0.00 72 1019.3
20260510080503 12 315 8.0 25.7 0.00 0.00 0.00 72 1019.4
20260510080012 12 61 4.8 20.9 0.00 0.00 0.00 73 1019.2
20260510075503 12 22 4.8 17.7 0.00 0.00 0.00 74 1019.4
20260510075004 12 324 6.4 16.1 0.00 0.00 0.00 74 1019.3
20260510074516 12 88 4.8 16.1 0.00 0.00 0.00 75 1019.3
20260510074011 11 331 6.4 17.7 0.00 0.00 0.00 75 1019.2
20260510073502 11 352 4.8 19.3 0.00 0.00 0.00 75 1019.2
20260510073024 11 352 6.4 19.3 0.00 0.00 0.00 76 1019.2
20260510072507 11 16 6.4 19.3 0.00 0.00 0.00 78 1019.2
20260510072002 11 42 4.8 17.7 0.00 0.00 0.00 78 1019.2
20260510071517 11 59 4.8 22.5 0.00 0.00 0.00 78 1019.3
20260510071009 11 51 4.8 22.5 0.00 0.00 0.00 78 1019.1
20260510070503 11 71 6.4 22.5 0.00 0.00 0.00 78 1019.1
20260510070011 11 31 8.0 22.5 0.00 0.00 0.00 78 1019.0
20260510065503 11 32 4.8 22.5 0.00 0.00 0.00 80 1018.9
20260510065003 11 40 6.4 20.9 0.00 0.00 0.00 79 1019.0
20260510064539 11 5 6.4 20.9 0.00 0.00 0.00 80 1018.9
20260510064003 11 64 8.0 20.9 0.00 0.00 0.00 80 1018.8
20260510063507 11 22 4.8 19.3 0.00 0.00 0.00 81 1018.7
20260510063022 11 320 6.4 19.3 0.00 0.00 0.00 81 1018.7
20260510062503 11 317 6.4 20.9 0.00 0.00 0.00 81 1018.7
20260510062007 11 51 8.0 20.9 0.00 0.00 0.00 81 1018.7
20260510061535 11 58 6.4 17.7 0.00 0.00 0.00 80 1018.7
20260510061007 11 327 4.8 16.1 0.00 0.00 0.00 81 1018.6
20260510060504 11 5 4.8 19.3 0.00 0.00 0.00 82 1018.6
20260510060031 11 49 6.4 24.1 0.00 0.00 0.00 82 1018.5
20260510055507 11 65 6.4 24.1 0.00 0.00 0.00 82 1018.5
20260510055004 11 23 6.4 17.7 0.00 0.00 0.00 83 1018.4
20260510054514 10 360 6.4 12.9 0.00 0.00 0.00 83 1018.4
20260510054007 10 51 3.2 19.3 0.00 0.00 0.00 83 1018.5
20260510053508 10 111 6.4 19.3 0.00 0.00 0.00 83 1018.6
20260510053016 10 319 4.8 19.3 0.00 0.00 0.00 83 1018.5
20260510052507 10 42 6.4 19.3 0.00 0.00 0.00 83 1018.5
20260510052012 10 36 4.8 19.3 0.00 0.00 0.00 83 1018.4
20260510051509 10 49 3.2 16.1 0.00 0.00 0.00 83 1018.5
20260510051007 10 67 4.8 17.7 0.00 0.00 0.00 83 1018.6
20260510050502 10 327 3.2 17.7 0.00 0.00 0.00 84 1018.6
20260510050004 10 63 8.0 16.1 0.00 0.00 0.00 83 1018.7
20260510045506 10 83 3.2 17.7 0.00 0.00 0.00 84 1018.7
20260510045005 10 53 4.8 17.7 0.00 0.00 0.00 83 1018.7
20260510044508 10 18 3.2 16.1 0.00 0.00 0.00 83 1018.7
20260510044008 10 9 1.6 19.3 0.00 0.00 0.00 83 1018.8
20260510043508 10 36 6.4 19.3 0.00 0.00 0.00 83 1018.9
20260510043018 10 86 3.2 12.9 0.00 0.00 0.00 83 1018.9
20260510042503 10 55 4.8 9.7 0.00 0.00 0.00 83 1019.0
20260510042009 10 47 3.2 12.9 0.00 0.00 0.00 83 1018.9
20260510041521 10 297 3.2 14.5 0.00 0.00 0.00 83 1018.9
20260510041003 10 132 4.8 14.5 0.00 0.00 0.00 83 1018.9
20260510040502 10 66 4.8 14.5 0.00 0.00 0.00 83 1018.9
20260510040018 10 10 3.2 12.9 0.00 0.00 0.00 83 1018.9
20260510035506 10 333 3.2 12.9 0.00 0.00 0.00 83 1018.9
20260510035003 10 39 3.2 14.5 0.00 0.00 0.00 83 1018.9
20260510034508 10 332 3.2 12.9 0.00 0.00 0.00 82 1018.8
20260510034005 10 32 3.2 12.9 0.00 0.00 0.00 82 1018.9
20260510033503 10 50 3.2 12.9 0.00 0.00 0.00 83 1018.9
20260510033014 10 51 3.2 11.3 0.00 0.00 0.00 83 1019.1
20260510032506 10 138 1.6 12.9 0.00 0.00 0.00 84 1019.1
20260510032007 10 38 3.2 12.9 0.00 0.00 0.00 84 1019.2
20260510031510 10 49 3.2 12.9 0.00 0.00 0.00 85 1019.3
20260510031005 10 284 1.6 12.9 0.00 0.00 0.00 86 1019.3
20260510030507 10 352 3.2 12.9 0.00 0.00 0.00 86 1019.4
20260510030024 10 57 3.2 8.0 0.00 0.00 0.00 86 1019.4
20260510025504 10 360 3.2 8.0 0.00 0.00 0.00 87 1019.5
20260510025007 10 15 1.6 8.0 0.00 0.00 0.00 87 1019.5
20260510024531 10 30 3.2 9.7 0.00 0.00 0.00 87 1019.4
20260510024003 10 50 3.2 9.7 0.00 0.00 0.00 88 1019.4
20260510023503 10 5 3.2 9.7 0.00 0.00 0.00 88 1019.2
20260510023012 10 321 1.6 8.0 0.00 0.00 0.00 89 1019.2
20260510022503 10 17 1.6 6.4 0.00 0.00 0.00 89 1019.2
20260510022007 9 325 1.6 8.0 0.00 0.00 0.00 89 1019.3
20260510021515 9 329 1.6 8.0 0.00 0.00 0.00 89 1019.2
20260510021006 9 321 1.6 9.7 0.00 0.00 0.00 89 1019.2
20260510020503 9 321 1.6 9.7 0.00 0.00 0.00 89 1019.2
20260510020016 9 47 3.2 8.0 0.00 0.00 0.00 89 1019.2
20260510015509 9 331 3.2 9.7 0.00 0.00 0.00 89 1019.2
20260510015010 9 340 1.6 11.3 0.00 0.00 0.00 89 1019.2
20260510014516 9 360 3.2 11.3 0.00 0.00 0.00 89 1019.2
20260510014006 9 61 3.2 9.7 0.00 0.00 0.00 89 1019.2
20260510013507 9 55 1.6 9.7 0.00 0.00 0.00 89 1019.2
20260510013028 10 53 3.2 9.7 0.00 0.00 0.00 89 1019.2
20260510012503 10 360 1.6 12.9 0.00 0.00 0.00 89 1019.2
20260510012003 10 5 1.6 14.5 0.00 0.00 0.00 89 1019.1
20260510011512 10 323 3.2 9.7 0.00 0.00 0.00 89 1019.2
20260510011003 10 313 3.2 8.0 0.00 0.00 0.00 90 1019.2
20260510010504 10 47 1.6 17.7 0.00 0.00 0.00 90 1019.2
20260510010020 10 5 4.8 17.7 0.00 0.00 0.00 90 1019.3
20260510005507 10 30 1.6 11.3 0.00 0.00 0.00 90 1019.3
20260510005006 10 40 3.2 11.3 0.00 0.00 0.00 90 1019.1
20260510004523 10 55 1.6 8.0 0.00 0.00 0.00 90 1019.2
20260510004015 10 36 1.6 9.7 0.00 0.00 0.00 90 1019.2
20260510003509 10 16 1.6 9.7 0.00 0.00 0.00 90 1019.1
20260510003020 10 42 3.2 9.7 0.00 0.00 0.00 90 1019.2
20260510002507 10 70 3.2 11.3 0.00 0.00 0.00 90 1019.3
20260510002010 10 324 1.6 11.3 0.00 0.00 0.00 91 1019.3
20260510001516 10 36 1.6 6.4 0.00 0.00 0.00 91 1019.4
20260510001004 10 360 3.2 6.4 0.00 0.00 0.00 91 1019.5
20260510000504 9 12 1.6 6.4 0.00 0.00 0.00 91 1019.6
20260510000011 9 326 1.6 3.2 0.00 0.00 0.00 90 1019.6
20260509235503 9 319 1.6 3.2 0.00 0.00 0.00 89 1019.5
20260509235007 9 312 0.0 3.2 0.00 0.00 0.00 88 1019.6
20260509234534 10 312 1.6 3.2 0.00 0.00 0.00 87 1019.7
20260509234002 10 296 0.0 3.2 0.00 0.00 0.00 87 1019.9
20260509233507 10 297 0.0 3.2 0.00 0.00 0.00 89 1019.9
20260509233038 10 327 0.0 3.2 0.00 0.00 0.00 90 1019.9
20260509232510 10 41 0.0 4.8 0.00 0.00 0.00 90 1019.9
20260509232007 10 19 0.0 4.8 0.00 0.00 0.00 90 1019.8
20260509231529 10 46 1.6 4.8 0.00 0.00 0.00 90 1019.7
20260509231010 10 352 1.6 4.8 0.00 0.00 0.00 89 1019.7
20260509230506 10 352 1.6 6.4 0.00 0.00 0.00 89 1019.7
20260509230024 10 5 1.6 6.4 0.00 0.00 0.00 89 1019.6
20260509225507 10 38 1.6 4.8 0.00 0.00 0.00 89 1019.6
20260509225009 10 40 0.0 4.8 0.00 0.00 0.00 89 1019.5
20260509224520 10 315 1.6 6.4 0.00 0.00 0.00 89 1019.4
20260509224008 10 9 1.6 6.4 0.00 0.00 0.00 89 1019.3
20260509223508 10 22 1.6 4.8 0.00 0.00 0.00 89 1019.3
20260509223017 10 82 1.6 3.2 0.00 0.00 0.00 89 1019.3
20260509222509 10 342 0.0 3.2 0.00 0.00 0.00 89 1019.4
20260509222009 10 340 1.6 3.2 0.00 0.00 0.00 88 1019.4
20260509221527 10 346 0.0 3.2 0.00 0.00 0.00 88 1019.4
20260509221007 10 346 0.0 3.2 0.00 0.00 0.00 88 1019.4
20260509220511 10 346 0.0 3.2 0.00 0.00 0.00 88 1019.4
20260509220029 10 352 0.0 4.8 0.00 0.00 0.00 88 1019.3
20260509215510 10 321 0.0 4.8 0.00 0.00 0.00 88 1019.2
20260509215012 10 352 1.6 4.8 0.00 0.00 0.00 88 1019.2
20260509214529 10 352 1.6 8.0 0.00 0.00 0.00 88 1019.3
20260509214007 11 13 0.0 8.0 0.00 0.00 0.00 88 1019.3
20260509213512 11 317 0.0 4.8 0.00 0.00 0.00 88 1019.3
20260509213022 11 59 0.0 4.8 0.00 0.00 0.00 88 1019.2
20260509212506 11 48 1.6 4.8 0.00 0.00 0.00 88 1019.2
20260509212014 11 52 1.6 4.8 0.00 0.00 0.00 88 1019.3
20260509211522 11 42 1.6 6.4 0.00 0.00 0.00 87 1019.3
20260509211008 11 29 0.0 6.4 0.00 0.00 0.00 88 1019.3
20260509210509 11 49 1.6 4.8 0.00 0.00 0.00 87 1019.3
20260509210025 11 12 0.0 3.2 0.00 0.00 0.00 87 1019.3
20260509205507 11 360 1.6 3.2 0.00 0.00 0.00 87 1019.4
20260509205011 11 24 0.0 6.4 0.00 0.00 0.00 87 1019.4
20260509204533 11 47 1.6 6.4 0.00 0.00 0.00 87 1019.3
20260509204009 11 65 1.6 6.4 0.00 0.00 0.00 87 1019.3
20260509203514 11 29 1.6 6.4 0.00 0.00 0.00 86 1019.3
20260509203036 11 75 0.0 4.8 0.00 0.00 0.00 86 1019.3
20260509202506 11 51 1.6 6.4 0.00 0.00 0.00 86 1019.3
20260509202008 11 16 1.6 6.4 0.00 0.00 0.00 86 1019.4
20260509201522 11 56 1.6 6.4 0.00 0.00 0.00 86 1019.2
20260509201008 11 352 0.0 6.4 0.00 0.00 0.00 85 1019.1
20260509200512 11 56 1.6 6.4 0.00 0.00 0.00 85 1019.1
20260509200026 11 53 1.6 6.4 0.00 0.00 0.00 85 1019.0
20260509195511 11 55 1.6 6.4 0.00 0.00 0.00 85 1018.9
20260509195015 11 34 1.6 4.8 0.00 0.00 0.00 85 1018.9
20260509194524 11 89 1.6 12.9 0.00 0.00 0.00 85 1018.8
20260509194009 11 37 1.6 12.9 0.00 0.00 0.00 85 1018.8
20260509193512 11 42 1.6 6.4 0.00 0.00 0.00 85 1018.8
20260509193022 11 74 1.6 8.0 0.00 0.00 0.00 85 1018.7
20260509192506 11 5 1.6 8.0 0.00 0.00 0.00 85 1018.7
20260509192012 12 78 1.6 8.0 0.00 0.00 0.00 85 1018.7
20260509191528 12 55 1.6 6.4 0.00 0.00 0.00 84 1018.6
20260509191009 12 42 1.6 6.4 0.00 0.00 0.00 84 1018.5
20260509190511 12 11 1.6 6.4 0.00 0.00 0.00 84 1018.5
20260509190029 12 111 1.6 9.7 0.00 0.00 0.00 84 1018.4
20260509185510 12 34 3.2 9.7 0.00 0.00 0.00 84 1018.4
20260509185010 12 328 1.6 6.4 0.00 0.00 0.00 84 1018.4
20260509184538 12 5 1.6 6.4 0.00 0.00 0.00 83 1018.4
20260509184010 12 58 1.6 6.4 0.00 0.00 0.00 83 1018.5
20260509183511 12 73 1.6 6.4 0.00 0.00 0.00 82 1018.5
20260509183033 12 19 1.6 8.0 0.00 0.00 0.00 82 1018.5
20260509182511 12 30 3.2 8.0 0.00 0.00 0.00 81 1018.6
20260509182010 13 44 1.6 12.9 0.00 0.00 0.00 80 1018.6
20260509181527 13 24 3.2 12.9 0.00 0.00 0.00 79 1018.6
20260509181011 13 51 1.6 9.7 0.00 0.00 0.00 78 1018.6
20260509180514 13 110 3.2 9.7 0.00 0.00 0.00 77 1018.6
20260509180024 13 62 3.2 9.7 0.00 0.00 0.00 75 1018.6